Satellite: NOAA-11 Catalog number: 19531 Epoch time: 11236.72330542 Element set: 0612 Inclination: 098.7501 deg RA of node: 322.8851 deg Eccentricity: 0.0011220 Arg of perigee: 357.1980 deg Mean anomaly: 002.9136 deg Mean motion: 14.14921997 rev/day Decay rate: 1.65e-06 rev/day^2 Epoch rev: 18244 Checksum: 276
Satellite: NOAA-12 Catalog number: 21263 Epoch time: 11236.93261274 Element set: 0118 Inclination: 098.7510 deg RA of node: 254.6545 deg Eccentricity: 0.0012493 Arg of perigee: 351.8459 deg Mean anomaly: 008.2515 deg Mean motion: 14.25732523 rev/day Decay rate: 2.9e-07 rev/day^2 Epoch rev: 05420 Checksum: 277
Satellite: MET-3/5 Catalog number: 21655 Epoch time: 11236.73345603 Element set: 0192 Inclination: 082.5598 deg RA of node: 002.3361 deg Eccentricity: 0.0013129 Arg of perigee: 352.2279 deg Mean anomaly: 007.8608 deg Mean motion: 13.17027924 rev/day Decay rate: 5.1e-07 rev/day^2 Epoch rev: 96274 Checksum: 291
Satellite: MET-2/21 Catalog number: 22782 Epoch time: 11236.59195404 Element set: 0186 Inclination: 082.5456 deg RA of node: 268.6088 deg Eccentricity: 0.0020859 Arg of perigee: 267.1090 deg Mean anomaly: 092.7684 deg Mean motion: 13.83660123 rev/day Decay rate: 3.3e-07 rev/day^2 Epoch rev: 90801 Checksum: 312
Satellite: OKEAN-4 Catalog number: 23317 Epoch time: 11236.91379398 Element set: 0705 Inclination: 082.5428 deg RA of node: 308.9654 deg Eccentricity: 0.0020048 Arg of perigee: 251.1853 deg Mean anomaly: 108.7188 deg Mean motion: 14.83130072 rev/day Decay rate: 3.64e-06 rev/day^2 Epoch rev: 91073 Checksum: 302
Satellite: NOAA-14 Catalog number: 23455 Epoch time: 11236.96525173 Element set: 0604 Inclination: 098.8493 deg RA of node: 318.9085 deg Eccentricity: 0.0010291 Arg of perigee: 084.3108 deg Mean anomaly: 275.9237 deg Mean motion: 14.13829114 rev/day Decay rate: 3.0e-07 rev/day^2 Epoch rev: 85879 Checksum: 317
Satellite: NOAA-15 Catalog number: 25338 Epoch time: 11236.55791834 Element set: 0928 Inclination: 098.6619 deg RA of node: 221.7838 deg Eccentricity: 0.0009678 Arg of perigee: 252.9830 deg Mean anomaly: 107.0277 deg Mean motion: 14.24943823 rev/day Decay rate: 1.84e-06 rev/day^2 Epoch rev: 69046 Checksum: 342
Satellite: RESURS Catalog number: 25394 Epoch time: 11236.95563679 Element set: 0879 Inclination: 098.3035 deg RA of node: 236.2013 deg Eccentricity: 0.0002376 Arg of perigee: 046.7474 deg Mean anomaly: 313.3909 deg Mean motion: 14.24237331 rev/day Decay rate: -.00000000 rev/day^2 Epoch rev: 68209 Checksum: 291
Satellite: FENGYUN1 Catalog number: 25730 Epoch time: 11236.92574366 Element set: 0417 Inclination: 098.8202 deg RA of node: 196.6228 deg Eccentricity: 0.0023754 Arg of perigee: 118.7133 deg Mean anomaly: 241.6425 deg Mean motion: 14.08744065 rev/day Decay rate: 6.70e-06 rev/day^2 Epoch rev: 63274 Checksum: 300
Satellite: OKEAN-0 Catalog number: 25860 Epoch time: 11236.93701104 Element set: 0410 Inclination: 097.8910 deg RA of node: 201.5177 deg Eccentricity: 0.0001664 Arg of perigee: 090.1700 deg Mean anomaly: 269.9699 deg Mean motion: 14.73818442 rev/day Decay rate: 1.15e-06 rev/day^2 Epoch rev: 65078 Checksum: 290
Satellite: NOAA-16 Catalog number: 26536 Epoch time: 11236.56853402 Element set: 0410 Inclination: 099.1364 deg RA of node: 268.4864 deg Eccentricity: 0.0010425 Arg of perigee: 196.5780 deg Mean anomaly: 163.5052 deg Mean motion: 14.12640188 rev/day Decay rate: 3.02e-06 rev/day^2 Epoch rev: 56301 Checksum: 285
Satellite: NOAA-17 Catalog number: 27453 Epoch time: 11236.74057290 Element set: 0397 Inclination: 098.3744 deg RA of node: 273.2866 deg Eccentricity: 0.0011002 Arg of perigee: 312.1512 deg Mean anomaly: 047.8730 deg Mean motion: 14.24303133 rev/day Decay rate: -6.7e-07 rev/day^2 Epoch rev: 47641 Checksum: 283
Satellite: NOAA-18 Catalog number: 28654 Epoch time: 11236.78870345 Element set: 0876 Inclination: 099.0015 deg RA of node: 188.1228 deg Eccentricity: 0.0013450 Arg of perigee: 272.8702 deg Mean anomaly: 087.0945 deg Mean motion: 14.11504641 rev/day Decay rate: 2.64e-06 rev/day^2 Epoch rev: 32260 Checksum: 300
Satellite: NOAA-19 Catalog number: 33591 Epoch time: 11236.80117234 Element set: 0067 Inclination: 098.8288 deg RA of node: 175.8120 deg Eccentricity: 0.0014552 Arg of perigee: 139.0771 deg Mean anomaly: 221.1477 deg Mean motion: 14.11196071 rev/day Decay rate: 1.30e-06 rev/day^2 Epoch rev: 13106 Checksum: 275
/EX SB KEPS @ AMSAT $ORB11237.M Orbital Elements 11237.MISC
HR AMSAT ORBITAL ELEMENTS FOR MANNED AND MISCELLANEOUS SATELLITES FROM WA5QGD FORT WORTH,TX August 25, 2011 Send Subscribe/unsubscribe to KEPS at http://www.amsat.org/mailman/listinfo/keps BID: ORB11237.M TO ALL RADIO AMATEURS BT
Satellite: HUBBLE Catalog number: 20580 Epoch time: 11237.24945397 Element set: 824 Inclination: 028.4708 deg RA of node: 285.2882 deg Eccentricity: 0.0003743 Arg of perigee: 134.0987 deg Mean anomaly: 225.9920 deg Mean motion: 15.01464383 rev/day Decay rate: 6.41e-06 rev/day^2 Epoch rev: 97004 Checksum: 303
Satellite: ISS Catalog number: 25544 Epoch time: 11237.83961142 Element set: 950 Inclination: 051.6392 deg RA of node: 170.1755 deg Eccentricity: 0.0013171 Arg of perigee: 117.6731 deg Mean anomaly: 339.7467 deg Mean motion: 15.60529760 rev/day Decay rate: 6.994e-05 rev/day^2 Epoch rev: 73178 Checksum: 315
Satellite: CO-58 Catalog number: 28895 Epoch time: 11236.59306217 Element set: 0957 Inclination: 097.9568 deg RA of node: 110.3036 deg Eccentricity: 0.0018340 Arg of perigee: 009.8998 deg Mean anomaly: 350.2575 deg Mean motion: 14.60152446 rev/day Decay rate: 2.28e-06 rev/day^2 Epoch rev: 31022 Checksum: 319
Satellite: FALCON Catalog number: 30776 Epoch time: 11236.58265720 Element set: 156 Inclination: 035.4348 deg RA of node: 291.0369 deg Eccentricity: 0.0002155 Arg of perigee: 318.1143 deg Mean anomaly: 041.9409 deg Mean motion: 15.04847635 rev/day Decay rate: 1.008e-05 rev/day^2 Epoch rev: 24535 Checksum: 280
Satellite: MAST Catalog number: 31126 Epoch time: 11236.93179625 Element set: 0243 Inclination: 097.8936 deg RA of node: 260.2648 deg Eccentricity: 0.0093965 Arg of perigee: 317.4548 deg Mean anomaly: 041.9407 deg Mean motion: 14.53789205 rev/day Decay rate: 2.09e-06 rev/day^2 Epoch rev: 23107 Checksum: 313
Satellite: CAPE1 Catalog number: 31130 Epoch time: 11236.56853633 Element set: 255 Inclination: 097.8973 deg RA of node: 256.5895 deg Eccentricity: 0.0101869 Arg of perigee: 329.6901 deg Mean anomaly: 029.8435 deg Mean motion: 14.52445223 rev/day Decay rate: 2.30e-06 rev/day^2 Epoch rev: 23056 Checksum: 304
Satellite: COMPASS Catalog number: 32787 Epoch time: 11237.73040179 Element set: 74 Inclination: 097.8416 deg RA of node: 300.2349 deg Eccentricity: 0.0014909 Arg of perigee: 313.1215 deg Mean anomaly: 046.8775 deg Mean motion: 14.82550834 rev/day Decay rate: 5.28e-06 rev/day^2 Epoch rev: 17986 Checksum: 310
Satellite: AAUSAT2 Catalog number: 32788 Epoch time: 11236.13303284 Element set: 0064 Inclination: 097.8435 deg RA of node: 298.9149 deg Eccentricity: 0.0014382 Arg of perigee: 318.5680 deg Mean anomaly: 041.4454 deg Mean motion: 14.82743027 rev/day Decay rate: 5.17e-06 rev/day^2 Epoch rev: 17964 Checksum: 313
Satellite: DO-64 Catalog number: 32789 Epoch time: 11237.73830954 Element set: 80 Inclination: 097.8519 deg RA of node: 301.6315 deg Eccentricity: 0.0014320 Arg of perigee: 310.9001 deg Mean anomaly: 049.1032 deg Mean motion: 14.83288903 rev/day Decay rate: 1.299e-05 rev/day^2 Epoch rev: 17989 Checksum: 311
Satellite: CO-66 Catalog number: 32791 Epoch time: 11236.68196758 Element set: 0067 Inclination: 097.8437 deg RA of node: 299.1245 deg Eccentricity: 0.0015253 Arg of perigee: 316.0206 deg Mean anomaly: 043.9802 deg Mean motion: 14.82222547 rev/day Decay rate: 7.73e-06 rev/day^2 Epoch rev: 17965 Checksum: 332
Satellite: RS-30 Catalog number: 32953 Epoch time: 11237.77029754 Element set: 25 Inclination: 082.5028 deg RA of node: 119.4747 deg Eccentricity: 0.0017648 Arg of perigee: 235.2245 deg Mean anomaly: 124.7172 deg Mean motion: 12.43014596 rev/day Decay rate: 1.0e-07 rev/day^2 Epoch rev: 14773 Checksum: 287
Satellite: TACSAT-3 Catalog number: 35001 Epoch time: 11236.93288600 Element set: 0685 Inclination: 040.4521 deg RA of node: 114.6568 deg Eccentricity: 0.0021610 Arg of perigee: 358.7370 deg Mean anomaly: 001.3411 deg Mean motion: 15.50903151 rev/day Decay rate: 1.5025e-04 rev/day^2 Epoch rev: 12775 Checksum: 253
Satellite: PHARMSAT Catalog number: 35002 Epoch time: 11236.86152087 Element set: 0635 Inclination: 040.4673 deg RA of node: 113.3090 deg Eccentricity: 0.0023479 Arg of perigee: 006.7456 deg Mean anomaly: 353.3699 deg Mean motion: 15.50144411 rev/day Decay rate: 1.1866e-04 rev/day^2 Epoch rev: 12776 Checksum: 284
Satellite: HAWKSAT1 Catalog number: 35003 Epoch time: 11237.90820559 Element set: 733 Inclination: 040.4510 deg RA of node: 064.3184 deg Eccentricity: 0.0014843 Arg of perigee: 021.1869 deg Mean anomaly: 338.9572 deg Mean motion: 15.76492918 rev/day Decay rate: 1.31700e-03 rev/day^2 Epoch rev: 12839 Checksum: 294
Satellite: CP6 Catalog number: 35004 Epoch time: 11237.84862854 Element set: 750 Inclination: 040.4477 deg RA of node: 048.1071 deg Eccentricity: 0.0015918 Arg of perigee: 355.5991 deg Mean anomaly: 004.4696 deg Mean motion: 15.99495272 rev/day Decay rate: 6.21898e-03 rev/day^2 Epoch rev: 12855 Checksum: 340
Satellite: METEOR-M Catalog number: 35865 Epoch time: 11237.67809765 Element set: 669 Inclination: 098.7004 deg RA of node: 291.8839 deg Eccentricity: 0.0004586 Arg of perigee: 165.8872 deg Mean anomaly: 194.2372 deg Mean motion: 14.21841356 rev/day Decay rate: 1.77e-06 rev/day^2 Epoch rev: 10046 Checksum: 337
